{"data":{"norad_id":39444,"intl_designator":"2013-066AE","name":"FUNCUBE-1 (AO-73)","alt_names":[],"object_type":"PAYLOAD","status":"ACTIVE","operator":null,"country":"UK","launch_date":"2013-11-21","launch_site_code":"DLS","launch_vehicle":null,"mission":null,"orbit_class":"UNKNOWN","rcs_meters":0.0552,"size_class":null,"mass_kg":null,"dimensions":null,"purposes":["comms","tech_demo"],"wikipedia_slug":null,"has_3d_model":false,"image_url":null,"decayed_at":null,"tle_current":{"epoch":"2026-05-24T22:03:40.646880Z","epoch_age_seconds":85211,"freshness":"FRESH","line1":"1 39444U 13066AE  26144.91922045  .00006550  00000+0  41119-3 0  9993","line2":"2 39444  97.8266 115.8865 0034518 283.8693  75.8695 15.09149207676151","mean_motion":15.09149207,"eccentricity":0.0034518,"inclination_deg":97.8266,"raan_deg":115.8865,"arg_perigee_deg":283.8693,"mean_anomaly_deg":75.8695,"bstar":0.00041119,"rev_number":67615,"period_min":95.41800064041,"perigee_km":514.92255052811,"apogee_km":562.6743059505,"semimajor_km":6916.9354282393,"source":"CELESTRAK","updated_at":"2026-05-25T13:38:25.494769Z"}}}